Weather History for Talkeetna, AK

Change the Weather History Date:

Monday, July 29, 2013

  Actual Average Record
Temperature  
Mean Temperature 66 °F -  
Max Temperature 78 °F 67 °F 84 °F (1977)
Min Temperature 55 °F 49 °F 37 °F (1986)
Cooling Degree Days 2    
Growing Degree Days 16 (Base 50)    
Moisture  
Dew Point 57 °F    
Average Humidity 69    
Maximum Humidity 93    
Minimum Humidity 46    
Precipitation  
Precipitation 0.00 in - - ()
Sea Level Pressure  
Sea Level Pressure 30.16 in    
Wind  
Wind Speed 2 mph (South)    
Max Wind Speed 8 mph    
Max Gust Speed -    
Visibility 10 miles    
Events      
Averages and records for this station are not official NWS values.
T = Trace of Precipitation, MM = Missing Value Source: NWS Daily Summary

Daily Weather History Graph

Daily Weather History Graph

Search for Another Location

Airport:

Trip Planner

Search our weather history database for the weather conditions in past years. The results will help you decide how hot, cold, wet, or windy it might be!

Date:

Astronomy

Jul. 29, 2013 Rise Set
Actual Time 5:16 AM AKDT 10:54 PM AKDT
Civil Twilight 4:00 AM AKDT 12:09 AM AKDT
Nautical Twilight Sun does not rise Sun does not rise
Astronomical Twilight Sun does not rise Sun does not rise
Moon No Moon Rise 4:01 PM AKDT (7/29)
Length of Visible Light 20h 09m
Length of Day
17h 37m
Waning Gibbous, 49% of the Moon is Illuminated
Jul 29
Waning Gibbous
Aug 6
New
Aug 14
First Quarter
Aug 20
Full
Aug 28
Last Quarter

Hourly Weather History & Observations

Time (AKDT) Temp. Dew Point Humidity Pressure Visibility Wind Dir Wind Speed Gust Speed Precip Events Conditions
12:53 AM 66.0 °F 59.0 °F 78% 30.16 in 10.0 mi Calm Calm - N/A   Clear
1:53 AM 64.9 °F 57.9 °F 78% 30.17 in 10.0 mi SSE 3.5 mph - N/A   Partly Cloudy
2:53 AM 61.0 °F 57.0 °F 87% 30.18 in 10.0 mi Calm Calm - N/A   Clear
3:53 AM 60.1 °F 57.9 °F 93% 30.18 in 10.0 mi Calm Calm - N/A   Clear
4:53 AM 57.0 °F 55.0 °F 93% 30.18 in 10.0 mi Calm Calm - N/A   Mostly Cloudy
5:53 AM 55.9 °F 54.0 °F 93% 30.19 in 10.0 mi Calm Calm - N/A   Mostly Cloudy
6:53 AM 57.0 °F 55.0 °F 93% 30.19 in 10.0 mi Calm Calm - N/A   Mostly Cloudy
7:53 AM 60.1 °F 57.0 °F 90% 30.20 in 10.0 mi Calm Calm - N/A   Mostly Cloudy
8:53 AM 63.0 °F 55.0 °F 75% 30.20 in 10.0 mi SSW 3.5 mph - N/A   Mostly Cloudy
9:53 AM 64.9 °F 55.9 °F 73% 30.20 in 10.0 mi Calm Calm - N/A   Scattered Clouds
10:53 AM 69.1 °F 57.9 °F 68% 30.19 in 10.0 mi SSW 3.5 mph - N/A   Partly Cloudy
11:53 AM 69.1 °F 57.0 °F 65% 30.18 in 10.0 mi SW 4.6 mph - N/A   Unknown
12:53 PM 72.0 °F 57.0 °F 59% 30.18 in 10.0 mi Variable 4.6 mph - N/A   Clear
1:53 PM 73.0 °F 57.9 °F 59% 30.17 in 10.0 mi South 3.5 mph - N/A   Partly Cloudy
2:53 PM 75.0 °F 57.9 °F 55% 30.15 in 10.0 mi South 6.9 mph - N/A   Partly Cloudy
3:53 PM 75.9 °F 59.0 °F 56% 30.14 in 10.0 mi South 6.9 mph - N/A   Partly Cloudy
4:53 PM 77.0 °F 59.0 °F 54% 30.12 in 10.0 mi South 4.6 mph - N/A   Clear
5:53 PM 78.1 °F 59.0 °F 52% 30.11 in 10.0 mi Variable 4.6 mph - N/A   Clear
6:53 PM 78.1 °F 59.0 °F 52% 30.11 in 10.0 mi South 8.1 mph - N/A   Clear
7:53 PM 77.0 °F 57.9 °F 52% 30.11 in 10.0 mi South 8.1 mph - N/A   Clear
8:53 PM 75.0 °F 57.9 °F 55% 30.11 in 10.0 mi SSW 6.9 mph - N/A   Clear
9:53 PM 72.0 °F 57.9 °F 61% 30.12 in 10.0 mi South 6.9 mph - N/A   Clear
10:53 PM 69.1 °F 57.0 °F 65% 30.14 in 10.0 mi South 5.8 mph - N/A   Clear
11:53 PM 68.0 °F 57.0 °F 68% 30.15 in 10.0 mi South 5.8 mph - N/A   Clear